"Pseudo-MPEC" for P225ixP

Created 2025 Jan 26 18:31:13 UT using Find_Orb

Click here for an explanation of pseudo-MPECs

 
 Astrometry: 
     P225ixP* C2025 01 06.48498008 01 43.442+72 00 45.63   ~16Il 22.37wXNEOCPF52
     P225ixP  C2025 01 06.49854108 01 41.620+72 01 06.54   ~16Il 22.19wXNEOCPF52
     P225ixP  C2025 01 06.51215508 01 39.798+72 01 27.64   ~16Il 22.69wXNEOCPF52
     P225ixP  C2025 01 06.52584508 01 37.904+72 01 48.46   ~16Il 22.23wXNEOCPF52

Station data:
(F52) Pan-STARRS 2, Haleakala  (N20.707382 W156.255910)  US/Hawaii.
   Observers J. Bulger, T. Dukes, T. Lowe, A. Schultz, M. Willman. Measurers
   K. Chambers, S. Chastel, T. de Boer, L. Denneau, J. Fairlamb, H.
   Flewelling, M. Huber, C.-C. Lin, E. Magnier, Y. Ramanjooloo, R. Wainscoat,
   R. Weryk. 1.8-m Ritchey-Chrétien + CCD.

Orbital elements:  P225ixP
   Perihelion 2025 Jan 12.92337 +/- 73.4 TT = 22:09:38 (JD 2460688.42337)
Epoch 2025 Jan  7.0 TT = JDT 2460682.5   Earth MOID: 0.6974      AutoNEOCP
M 357.93893828 +/- 20               (J2000 ecliptic)
n   0.34795444 +/- 0.255            Peri.   49.40809 +/- 80
a   2.00195567 +/- 0.979            Node    63.98428 +/- 42
e   0.1942399 +/- 0.265             Incl.   31.68433 +/- 15
P   2.83258                H 20.46  G  0.15   U 11.8  SR
q 1.61309597 +/- 0.509    Q 2.39081536 +/- 56.7
From 4 observations 2025 Jan. 6 (58.8 min); mean residual 0".07
Residuals in arcseconds: 
250106 F52  .05-  .01-    250106 F52  .12+  .11+    
250106 F52  .02+  .05-    250106 F52  .08-  .06-    

Ephemerides (geocentric):
Date (UTC) HH   RA             Dec           delta  r     elong  mag " sig PA
---- --------  ------------   ------------  ------ ------ -----  --- --------
2025 01 26 19  07 04 33.542   +77 07 31.84  .87613 1.6152 120.3 22.6  32d 165
2025 01 26 20  07 04 26.518   +77 07 43.75  .87634 1.6152 120.3 22.6  32d 165
2025 01 26 21  07 04 19.505   +77 07 55.56  .87654 1.6152 120.3 22.6  32d 165
2025 01 26 22  07 04 12.503   +77 08 07.28  .87675 1.6153 120.3 22.6  32d 165
2025 01 26 23  07 04 05.511   +77 08 18.91  .87695 1.6153 120.3 22.6  32d 165
2025 01 27 00  07 03 58.529   +77 08 30.45  .87716 1.6153 120.2 22.6  32d 165
2025 01 27 01  07 03 51.558   +77 08 41.89  .87736 1.6153 120.2 22.6  32d 165
2025 01 27 02  07 03 44.598   +77 08 53.24  .87756 1.6153 120.2 22.6  32d 165
2025 01 27 03  07 03 37.649   +77 09 04.50  .87777 1.6153 120.2 22.6  32d 165
2025 01 27 04  07 03 30.710   +77 09 15.67  .87797 1.6153 120.2 22.6  32d 165
2025 01 27 05  07 03 23.783   +77 09 26.75  .87818 1.6153 120.1 22.6  32d 165
2025 01 27 06  07 03 16.866   +77 09 37.73  .87838 1.6154 120.1 22.6  32d 165
2025 01 27 07  07 03 09.960   +77 09 48.62  .87859 1.6154 120.1 22.6  32d 165
2025 01 27 08  07 03 03.066   +77 09 59.42  .87879 1.6154 120.1 22.6  32d 165
2025 01 27 09  07 02 56.182   +77 10 10.13  .87900 1.6154 120.1 22.6  32d 165
2025 01 27 10  07 02 49.310   +77 10 20.75  .87921 1.6154 120.0 22.6  32d 165
2025 01 27 11  07 02 42.449   +77 10 31.28  .87941 1.6154 120.0 22.6  32d 165
2025 01 27 12  07 02 35.600   +77 10 41.72  .87962 1.6154 120.0 22.6  32d 165
2025 01 27 13  07 02 28.762   +77 10 52.06  .87982 1.6154 120.0 22.6  32d 165
2025 01 27 14  07 02 21.935   +77 11 02.32  .88003 1.6155 120.0 22.6  32d 165
2025 01 27 15  07 02 15.120   +77 11 12.48  .88023 1.6155 119.9 22.6  32d 165
2025 01 27 16  07 02 08.316   +77 11 22.56  .88044 1.6155 119.9 22.6  32d 165
2025 01 27 17  07 02 01.524   +77 11 32.54  .88065 1.6155 119.9 22.6  33d 165
2025 01 27 18  07 01 54.744   +77 11 42.43  .88085 1.6155 119.9 22.6  33d 165
2025 01 27 19  07 01 47.976   +77 11 52.24  .88106 1.6155 119.9 22.6  33d 165
2025 01 27 20  07 01 41.219   +77 12 01.95  .88127 1.6155 119.8 22.6  33d 165
2025 01 27 21  07 01 34.474   +77 12 11.58  .88147 1.6156 119.8 22.6  33d 165
2025 01 27 22  07 01 27.741   +77 12 21.11  .88168 1.6156 119.8 22.6  33d 165
2025 01 27 23  07 01 21.020   +77 12 30.56  .88189 1.6156 119.8 22.6  33d 166
2025 01 28 00  07 01 14.311   +77 12 39.91  .88209 1.6156 119.7 22.6  33d 166
2025 01 28 01  07 01 07.615   +77 12 49.18  .88230 1.6156 119.7 22.6  33d 166
2025 01 28 02  07 01 00.930   +77 12 58.36  .88251 1.6156 119.7 22.6  33d 166
2025 01 28 03  07 00 54.258   +77 13 07.45  .88272 1.6156 119.7 22.6  33d 166
2025 01 28 04  07 00 47.598   +77 13 16.45  .88292 1.6157 119.7 22.6  33d 166
2025 01 28 05  07 00 40.950   +77 13 25.36  .88313 1.6157 119.6 22.6  33d 166
2025 01 28 06  07 00 34.315   +77 13 34.18  .88334 1.6157 119.6 22.6  33d 166
2025 01 28 07  07 00 27.692   +77 13 42.92  .88355 1.6157 119.6 22.6  33d 166
2025 01 28 08  07 00 21.081   +77 13 51.56  .88375 1.6157 119.6 22.6  33d 166
2025 01 28 09  07 00 14.484   +77 14 00.12  .88396 1.6157 119.6 22.6  33d 166
2025 01 28 10  07 00 07.898   +77 14 08.59  .88417 1.6157 119.5 22.6  33d 166
2025 01 28 11  07 00 01.326   +77 14 16.97  .88438 1.6158 119.5 22.6  33d 166
2025 01 28 12  06 59 54.766   +77 14 25.27  .88459 1.6158 119.5 22.6  33d 166
2025 01 28 13  06 59 48.219   +77 14 33.48  .88480 1.6158 119.5 22.6  33d 166
2025 01 28 14  06 59 41.685   +77 14 41.60  .88500 1.6158 119.5 22.6  33d 166
2025 01 28 15  06 59 35.164   +77 14 49.63  .88521 1.6158 119.4 22.6  33d 166
2025 01 28 16  06 59 28.655   +77 14 57.57  .88542 1.6158 119.4 22.6  33d 166
2025 01 28 17  06 59 22.160   +77 15 05.43  .88563 1.6158 119.4 22.6  33d 166
2025 01 28 18  06 59 15.678   +77 15 13.20  .88584 1.6159 119.4 22.6  33d 166